Huron, SD

4:34 AM CDT on April 26, 2017 (GMT -0500)
Huron Regional

Weather History for KHON - October, 2013

Change the Weather History Date:

Tuesday, October 8, 2013

  Actual Average Record
Temperature  
Mean Temperature 65 °F 51 °F  
Max Temperature 76 °F 64 °F 86 °F (2003)
Min Temperature 53 °F 38 °F 15 °F (1895)
Degree Days  
Heating Degree Days 0 14  
Month to date heating degree days 75 99  
Since 1 July heating degree days 150 295  
Cooling Degree Days 0 0  
Month to date cooling degree days 0 0  
Year to date cooling degree days 848 738  
Growing Degree Days 14 (Base 50)    
Moisture  
Dew Point 44 °F    
Average Humidity 51    
Maximum Humidity 74    
Minimum Humidity 23    
Precipitation  
Precipitation 0.00 in 0.06 in 1.31 in (1924)
Month to date precipitation 1.69 0.53  
Year to date precipitation 20.30 20.25  
Snow  
Snow 0.00 in 0.00 in 0.10 in (1932)
Month to date snowfall 0.0 0.1  
Since 1 July snowfall 0.0 0.1  
Since 1 September snowfall 0.0 0.1  
Snow Depth 0.00 in    
Sea Level Pressure  
Sea Level Pressure 29.70 in    
Wind  
Wind Speed 12 mph (South)    
Max Wind Speed 22 mph    
Max Gust Speed 30 mph    
Visibility 10 miles    
Events      
T = Trace of Precipitation, MM = Missing Value Source: NWS Daily Summary

Daily Weather History Graph

Daily Weather History Graph

Search for Another Location

Airport or City:

Trip Planner

Search our weather history database for the weather conditions in past years. The results will help you decide how hot, cold, wet, or windy it might be!

Date:

Astronomy

Oct. 08, 2013 Rise Set
Actual Time 7:39 AM CDT 7:00 PM CDT
Civil Twilight 7:10 AM CDT 7:29 PM CDT
Nautical Twilight 6:36 AM CDT 8:02 PM CDT
Astronomical Twilight 6:03 AM CDT 8:36 PM CDT
Moon 11:43 AM CDT (10/8) 9:29 PM CDT (10/8)
Length of Visible Light 12h 18m
Length of Day
11h 20m
Waxing Crescent, 16% of the Moon is Illuminated
Oct 8
Waxing Crescent
Oct 11
First Quarter
Oct 18
Full
Oct 26
Last Quarter
Nov 3
New

Hourly Weather History & Observations

Time (CDT) Temp. Dew Point Humidity Pressure Visibility Wind Dir Wind Speed Gust Speed Precip Events Conditions
12:55 AM 55.9 °F 44.1 °F 64% 29.77 in 10.0 mi SSE 10.4 mph 17.3 mph N/A   Clear
1:55 AM 55.9 °F 44.1 °F 64% 29.75 in 10.0 mi SSE 13.8 mph 20.7 mph N/A   Clear
2:55 AM 55.0 °F 44.1 °F 67% 29.73 in 10.0 mi South 12.7 mph - N/A   Clear
3:55 AM 54.0 °F 44.1 °F 69% 29.70 in 10.0 mi SSE 11.5 mph - N/A   Clear
4:55 AM 53.1 °F 43.0 °F 69% 29.69 in 10.0 mi SSE 12.7 mph - N/A   Clear
5:55 AM 53.1 °F 43.0 °F 69% 29.69 in 10.0 mi South 10.4 mph - N/A   Clear
6:55 AM 53.1 °F 43.0 °F 69% 29.68 in 10.0 mi South 12.7 mph 21.9 mph N/A   Clear
7:55 AM 53.1 °F 43.0 °F 69% 29.69 in 10.0 mi South 12.7 mph - N/A   Clear
8:55 AM 55.9 °F 43.0 °F 62% 29.69 in 10.0 mi South 12.7 mph 21.9 mph N/A   Clear
9:55 AM 61.0 °F 43.0 °F 52% 29.68 in 10.0 mi South 15.0 mph 25.3 mph N/A   Clear
10:55 AM 64.9 °F 43.0 °F 45% 29.67 in 10.0 mi South 18.4 mph 29.9 mph N/A   Clear
11:55 AM 68.0 °F 44.1 °F 42% 29.66 in 10.0 mi South 16.1 mph 26.5 mph N/A   Clear
12:55 PM 70.0 °F 43.0 °F 38% 29.66 in 10.0 mi South 18.4 mph 26.5 mph N/A   Clear
1:55 PM 73.0 °F 45.0 °F 37% 29.66 in 10.0 mi SSW 19.6 mph 28.8 mph N/A   Clear
2:55 PM 72.0 °F 45.0 °F 38% 29.65 in 10.0 mi South 16.1 mph 25.3 mph N/A   Clear
3:55 PM 75.0 °F 45.0 °F 34% 29.65 in 10.0 mi South 18.4 mph 28.8 mph N/A   Clear
4:55 PM 75.0 °F 45.0 °F 34% 29.67 in 10.0 mi SSW 13.8 mph 19.6 mph N/A   Clear
5:55 PM 73.9 °F 45.0 °F 35% 29.68 in 10.0 mi SSW 6.9 mph - N/A   Clear
6:55 PM 69.1 °F 46.0 °F 44% 29.69 in 10.0 mi South 6.9 mph - N/A   Clear
7:55 PM 66.0 °F 45.0 °F 47% 29.71 in 10.0 mi South 5.8 mph - N/A   Clear
8:55 PM 63.0 °F 46.0 °F 54% 29.73 in 10.0 mi SSE 8.1 mph - N/A   Clear
9:55 PM 61.0 °F 45.0 °F 56% 29.75 in 10.0 mi SSE 6.9 mph - N/A   Clear
10:55 PM 53.1 °F 45.0 °F 74% 29.78 in 10.0 mi West 4.6 mph - N/A   Clear
11:55 PM 62.1 °F 45.0 °F 53% 29.78 in 10.0 mi SSW 6.9 mph - N/A   Clear